Location: ??
(35.4032°N, 139.3073°E)
Time: 11:04:45
(UTC+00:00)

Cosmos 1461 - Pass Details

Date: 13 April 2024
Orbit: 499 x 586 km, 65.0° (Epoch: 21 May)

Event Time Altitude Azimuth Distance (km) Brightness Sun altitude
Rises 18:38:46 0° 329° (NNW) 2,603 6.2 -18.7°
Reaches altitude 10° 18:40:56 10° 328° (NNW) 1,709 5.3 -18.3°
Maximum altitude 18:44:43 76° 243° (WSW) 517 2.4 -17.6°
Drops below altitude 10° 18:48:30 10° 157° (SSE) 1,695 5.3 -16.9°
Sets 18:50:39 0° 156° (SSE) 2,580 6.3 -16.5°
